SCOUT B-1 R/B

基本信息
目录编号:
8861
目录名称:
SCOUT B-1 R/B
国际标识:
1976-047B
轨道中心:
EARTH
物体状态:
在轨
发射日期:
1976-05-22 UTC
国别:
美国 (US)
轨道信息
数据来源: 国际轨道数据
星历时间: 2026-07-13T21:45:40+0800
半长轴: 7389.333km
偏心率: 0.0042454
轨道倾角: 99.848°
近地点辐角: 89.129°
升交点赤经: 60.328°
平近点角: 334.804°
近地点: 979.825km
远地点: 1042.567km
周期: 105.358分钟
每日圈数: 13.667685
详细信息
发射场:
AFWTR
轨道高度:
LEO
数据来源:
AOE Integration Group
参考系:
TEME
时间系统:
UTC
历元类型:
SGP4
2D轨道图
3D轨道图
轨道高度分析图
轨道倾角分析图
轨道综合分析图
查看轨道综合分析图